Weather Service Report


736 
FPUS83 KFGF 271110
OPUFGF
PRAIRIE TO PINES WEATHER ROUNDUP
NATIONAL WEATHER SERVICE EASTERN NORTH DAKOTA/GRAND FORKS ND
600 AM CDT MON JUN 27 2016

 **SATELLITE DATA USED TO AUGMENT SKY COVER AT AUTOMATED STATIONS**
 *****  WEATHER ACROSS EASTERN NORTH DAKOTA  *****
  
CITY           SKY/WX    TMP DP  RH WIND       PRES   REMARKS
GRAND FORKS    CLOUDY    53  50  89 NW9       30.17R                  
GRAND FORKS AF LGT RAIN  54  50  87 NW9       30.18R                  
GRAND CITY NWS   N/A     52 N/A N/A N7          N/A                   
BUXTON         NOT AVBL                                               
DEVILS LAKE    CLOUDY    54  49  83 N13       30.23R                  
FARGO          CLOUDY    58  49  72 NW15      30.16R                  
WAHPETON ARPT  CLOUDY    57  50  77 MISG      30.17R                  
$$

 *****  WEATHER ACROSS CENTRAL AND WESTERN NORTH DAKOTA  *****
  
CITY           SKY/WX    TMP DP  RH WIND       PRES   REMARKS
JAMESTOWN      CLOUDY    58  54  86 NW9       30.20R                  
BISMARCK       CLOUDY    59  55  87 NW5       30.27R                  
MINOT          CLOUDY    59  52  77 CALM      30.26R                  
MINOT AFB      CLOUDY    56  50  78 NE6       30.25R                  
GARRISON         N/A     57  55  93 CALM      30.25R                  
WILLISTON      MOCLDY    57  54  89 CALM      30.27R                  
DICKINSON      CLEAR     48  47  96 W7        30.27R                  
HETTINGER      PTCLDY    49  47  93 CALM      30.30R                  
$$

 *****  OTHER OBSERVATIONS NORTHEAST NORTH DAKOTA  *****
  
CITY           SKY/WX    TMP DP  RH WIND       PRES   REMARKS
WALHALLA       FAIR      52  48  87 N9        30.21R                  
LANGDON        FAIR      50  48  93 NW8       30.22R                  
CAVALIER       PTSUNNY   54  48  82 N12       30.19R                  
GRAFTON        CLOUDY    54  52  94 NW9       30.19R                  
CANDO          NOT AVBL                                               
FORT TOTTEN      N/A     54  49  84 N3        29.95S                  
ROLLA          CLOUDY    50  46  87 N8        30.26R                  
RUGBY          NOT AVBL                                               
 ***** THE ABOVE OBSERVATIONS ARE NON NWS ARE NOT QUALITY
        CONTROLLED AND MAY MIS-REPORT RAIN FOR SNOW...
$$

 *****  OTHER OBSERVATIONS SOUTHEAST NORTH DAKOTA *****
  
CITY           SKY/WX    TMP DP  RH WIND       PRES   REMARKS
COOPERSTOWN    NOT AVBL                                               
VALLEY CITY    CLOUDY    57  55  94 N12       30.21R                  
OAKES            N/A    N/A N/A N/A MISG        N/A                   
GWINNER        CLOUDY    61  55  82 N8        30.20R                  
SHEYENNE NWR     N/A     58  52  79 N5        29.95S                  
BUFFALO        NOT AVBL                                               
WYNDMERE         N/A     59  55  88 N6          N/A                   
 ***** THE ABOVE OBSERVATIONS ARE NON NWS ARE NOT QUALITY
       CONTROLLED AND MAY MIS-REPORT RAIN FOR SNOW...
$$

  *****  WEATHER ACROSS NORTHERN MINNESOTA  *****     
  
CITY           SKY/WX    TMP DP  RH WIND       PRES   REMARKS
FLAG ISLAND    CLOUDY    54  48  82 N17       30.10R                  
WARROAD        CLOUDY    52  48  87 NW8       30.13R                  
ROSEAU         CLOUDY    52  46  82 NW8       30.14R                  
HALLOCK        CLOUDY    52  48  87 N9        30.17R                  
THF RVR FALLS  LGT RAIN  52  50  93 NW14      30.15R FOG              
HALSTAD        NOT AVBL                                               
FOSSTON        RAIN      52  48  87 NW8       30.14R                  
BAUDETTE       LGT RAIN  52  50  93 N10       30.09R FOG              
WASKISH          N/A     55  52  88 NW12G18   30.09R                  
CROOKSTON      CLOUDY    52  52 100 N10       30.17R                  
$$
  *****  WEATHER ACROSS CENTRAL AND WEST MINNESOTA  *****     
  
CITY           SKY/WX    TMP DP  RH WIND       PRES   REMARKS
BEMIDJI        CLOUDY    52  50  93 W10       30.11R                  
PARK RAPIDS    PTCLDY    54  49  83 NW12      30.11R                  
WADENA         CLOUDY    55  48  76 NW9G16    30.12R                  
DETROIT LAKES  CLOUDY    52  52 100 NW9       30.15R                  
MOORHEAD       CLOUDY    57  50  77 NW14      30.16R                  
FERGUS FALLS   CLOUDY    55  54  94 N10G20    30.13R                  
ELBOW LAKE     CLOUDY    58  55  89 NW13G18   30.16R                  
MORRIS MN      CLOUDY    57  55  94 NW6       30.15R                  
STAPLES        CLOUDY    55  48  76 NW12G18   30.12R                  
WHEATON        CLOUDY    63  57  82 NW8       30.18S                  
$$
  *****  WEATHER ELSEWHERE ACROSS MINNESOTA  *****     
  
CITY           SKY/WX    TMP DP  RH WIND       PRES   REMARKS
DULUTH         CLOUDY    56  53  90 NW17      30.00R                  
INTRNTL FALLS  CLOUDY    52  48  86 N9        30.06R                  
ELY            DRIZZLE   52  52 100 N7G16     30.00R                  
CLOQUET        CLOUDY    57  52  82 W12       30.03R                  
BRAINERD       PTCLDY    56  50  80 NW12      30.10R                  
HIBBING        CLOUDY    55  52  89 NW14G26   30.02R                  
ALEXANDRIA     CLOUDY    60  53  77 NW13G22   30.15R                  
SAINT CLOUD    CLOUDY    61  54  77 NW13      30.10R                  
MINNEAPOLIS    PTCLDY    65  54  67 NW17      30.08R                  
$$

  *****  WEATHER ACROSS SOUTH DAKOTA  *****
  
CITY           SKY/WX    TMP DP  RH WIND       PRES   REMARKS
SIOUX FALLS    CLOUDY    59  53  80 N5        30.17R                  
BROOKINGS      CLEAR     56  53  90 CALM      30.17R                  
WATERTOWN      PTCLDY    61  56  83 NW7       30.18R                  
HURON          CLOUDY    55  53  93 NW5       30.18R                  
SISSETON         N/A     57  54  89 NW7       30.17R                  
ABERDEEN       PTCLDY    60  55  83 NW3       30.21R                  
MITCHELL       CLEAR     61  56  83 NW3       30.19R                  
PIERRE         CLOUDY    57  52  83 CALM      30.21S                  
MOBRIDGE       CLOUDY    62  57  83 CALM      30.22R                  
RAPID CITY     CLEAR     55  44  66 N8        30.31R                  
$$

  *****  SOME WEATHER IN NEARBY STATES *****
  
CITY           SKY/WX    TMP DP  RH WIND       PRES   REMARKS
GLASGOW MT     CLEAR     52  51  97 NW6       30.29R                  
GREAT FALLS MT CLEAR     46  41  82 W3        30.33S                  
CHEYENNE WY    CLEAR     54  38  54 W10       30.33S                  
SCOTTSBLUFF NE CLEAR     61  57  87 E6        30.23R                  
OMAHA NE       PTCLDY    70  66  87 SE7       30.12R                  
DES MOINES IA  PTCLDY    70  60  70 SW5       30.11R                  
DAVENPORT IA   CLEAR     65  61  87 W7        30.08R                  
CHICAGO IL     PTCLDY    70  64  81 W8        30.03R                  
EAU CLAIRE WI  MOCLDY    64  57  78 W8        30.02R                  
LA CROSSE WI   CLEAR     72  56  57 W13       30.02R                  
$$

  *****  SOME NATIONAL WEATHER *****
  
CITY           SKY/WX    TMP DP  RH WIND       PRES   REMARKS
LA GUARDIA NY  MOSUNNY   70  58  65 SW12      30.11S                  
RALEIGH NC     MOCLDY    68  65  90 S3        30.13S                  
ATLANTA GA     PTCLDY    71  68  90 S6        30.11R                  
NEW ORLEANS LA CLOUDY    83  77  82 W8        30.05S THUNDER HX  92   
OKLAHOMA CITY  CLOUDY    71  70  96 CALM      30.14R                  
ALBUQUERQUE NM PTCLDY    68  53  58 NE7       30.30S                  
SALT LAKE CITY CLEAR     65  47  52 N6        30.17R                  
LOS ANGELES CA PTCLDY    67  62  84 W6        29.89R                  
BOISE ID       CLEAR     67  35  30 SE3       30.09R                  
SEATTLE WA     PTCLDY    64  53  67 NE8       30.13S                  
$$

*** WEATHER ACROSS MANITOBA...SASKATCHEWAN AND ONTARIO ***
                ***ONTARIO***
  
CITY           SKY/WX    TMP DP  RH WIND       PRES   REMARKS
GERALDTON      DRIZZLE   54  54 100 NW9       29.81R                  
THUNDER BAY    MOCLDY    55  48  76 NW10G17   29.91R                  
SIOUX LOOKOUT  LGT RAIN  46  45  93 N8        30.04R                  
TORONTO        PTSUNNY   73  70  88 W10       29.90R                  
BIG TROUT LK   MOCLDY    37  36  93 N5        30.10R                  
PICKLE LAKE    DRIZZLE   45  43  93 N12G20    30.00  FOG              
DRYDEN         CLOUDY    46  45  93 N7        30.05R                  
KENORA         MOCLDY    48  43  81 N10G17    30.11R                  
$$      
                *** MANITOBA***
  
CITY           SKY/WX    TMP DP  RH WIND       PRES   REMARKS
BRANDON        MOCLDY    52  50  93 W5        30.25R                  
DAUPHIN        CLEAR     54  52  94 W8        30.23R                  
ISLAND LAKE    CLEAR     45  41  87 NE3       30.19R                  
PILOT MOUND      N/A     48  46  93 NW5         N/A                   
THE PAS        CLOUDY    46  45  93 CALM      30.20R                  
THOMPSON       PTCLDY    39  36  87 CALM      30.19R                  
WINNIPEG       MOCLDY    48  46  93 NW6       30.21R                  
LYNN LAKE      CLEAR     46  41  81 SW6       30.14R                  
CHURCHILL      MOSUNNY   45  39  81 SW7       30.10S                  
GILLAM         CLEAR     39  36  87 S5        30.18R                  
$$
                ***SASKATCHEWAN***
  
CITY           SKY/WX    TMP DP  RH WIND       PRES   REMARKS
ESTEVAN        DRIZZLE   55  55 100 SE3       30.27R FOG              
KINDERSLEY     FOG       50  48  93 SW6       30.26  VSB 1            
LLOYDMINSTER   CLEAR     55  54  94 W8        30.22R                  
PRINCE ALBERT  MOCLDY    50  48  93 CALM      30.22R                  
REGINA         MOCLDY    55  55 100 N2        30.27R                  
YORKTON        CLOUDY    55  54  94 W7        30.26R   C1F1C2F2C3F3C4F4C5F5C6F6C7F7C8F8C9F9CaFaCbFbCcFcCdFdCe!

Return to Home page


Western Regional Climate Center, wrcc@dri.edu